Regional Weather Roundup
Issued by NWS

Home | Current Version | Previous Version | Graphics & Text | Print | Product List | Glossary On
Versions: 1 2 3 4 5 6 7 8 9 10 11 12 13 14 15 16 17 18 19 20 21 22 23 24 25 26 27 28 29 30 31 32 33 34 35 36 37 38 39 40 41 42 43 44 45 46 47 48 49 50
000
ASUS43 KLMK 242310
RWRKY
KENTUCKY REGIONAL WEATHER ROUNDUP
NATIONAL WEATHER SERVICE LOUISVILLE KY
600 PM EST FRI NOV 24 2017

NOTE "FAIR" INDICATES FEW OR NO CLOUDS BELOW 12,000 FEET
WITH NO SIGNIFICANT WEATHER AND/OR OBSTRUCTIONS TO VISIBILITY.

KYZ001>023-026-027-061>063-070>075-250000-
WESTERN AND SOUTH CENTRAL KENTUCKY

CITY           SKY/WX    TMP DP  RH WIND       PRES   REMARKS
PADUCAH        CLEAR     58  32  37 S5        29.80R
HENDERSON      CLEAR     55  34  45 S9        29.79
OWENSBORO      CLEAR     51  33  50 S8        29.81S
HOPKINSVILLE   CLEAR     57  25  29 S7        29.84S
BOWLING GREEN  PTCLDY    53  27  36 S6        29.86F
GLASGOW        CLEAR     51  25  35 CALM      29.87R
$$

KYZ024-025-028>034-038-045-046-053-250000-
NORTH CENTRAL KENTUCKY

CITY           SKY/WX    TMP DP  RH WIND       PRES   REMARKS
LOUISVILLE/SDF MOCLDY    55  26  32 S7        29.82S
LOUISVILLE/LOU CLEAR     53  28  38 S6        29.83S
FORT KNOX      MOCLDY    52  27  38 S9        29.81F
$$

KYZ035>037-039>044-047>052-055>060-089>105-250000-
NORTHEAST KENTUCKY

CITY           SKY/WX    TMP DP  RH WIND       PRES   REMARKS
LEXINGTON      CLEAR     51  26  37 S7        29.85S
COVINGTON      PTCLDY    48  29  47 S9        29.80F
FRANKFORT      CLEAR     52  24  33 S6        29.83S
$$

KYZ054-064>069-076>088-106>120-250000-
SOUTHEAST KENTUCKY

CITY           SKY/WX    TMP DP  RH WIND       PRES   REMARKS
JACKSON        CLEAR     55  26  32 SW3       29.87S
LONDON         CLEAR     55  31  39 S3        29.87F
SOMERSET       CLEAR     54  30  40 CALM      29.88F
MIDDLESBORO    CLEAR     49  37  63 CALM      29.92S
MONTICELLO     CLEAR     46  32  58 W9        29.89F
$$





USA.gov is the U.S. government's official web portal to all federal, state and local government web resources and services.